Lid_Strength_Index
-0 -0 1 3 11 11 13 11 8 9 9 6 6 7 8 7 9 12 2 1 0 0 -0 -0 -1 -1 -1 -2 -2 -2 -2 -1 -2 -1 -1 -1 -1 -1 -1 -1 -1 -1 -2 -1 -1 -1 -1 -1 -1
1 1 2 6 13 16 14 9 10 8 7 6 6 6 8 9 5 4 3 1 0 0 -0 -0 -1 -2 -1 -2 -2 -2 -2 -1 -1 -1 -1 -1 -1 -1 -1 -1 -1 -1 -2 -1 -2 -1 -2 -1 -1
0 1 7 10 13 14 14 10 8 6 5 6 7 5 6 8 4 4 1 1 0 0 -0 -0 -2 -1 -2 -2 -2 -2 -2 -1 -2 -2 -1 -1 -1 -1 -1 -1 -1 -1 -2 -2 -2 -1 -1 -1 -1
2 4 6 12 12 10 9 8 7 7 6 5 6 8 5 3 4 2 1 1 0 0 -0 -1 -1 -2 -2 -1 -1 -1 -1 -1 -2 -2 -2 -2 -2 -2 -1 -1 -1 -1 -2 -2 -2 -1 -1 -1 -1
2 5 10 11 11 8 7 6 6 8 7 7 6 8 7 3 1 1 1 0 1 0 -0 -0 -1 -1 -1 -1 -1 -2 -2 -1 -2 -2 -2 -2 -2 -2 -2 -2 -2 -1 -1 -1 -1 -1 -1 -1 -1
7 6 11 13 10 8 7 6 6 7 7 7 7 8 7 2 2 1 1 1 0 0 -0 -0 -1 -1 -2 -1 -1 -1 -1 -2 -2 -1 -1 -2 -2 -2 -2 -1 -1 -1 -1 -1 -1 -1 -1 -1 -1
7 9 11 10 10 9 7 5 6 7 7 7 5 9 6 4 2 1 1 0 0 -0 0 -0 -0 -1 -1 -2 -1 -2 -2 -2 -1 -1 -2 -2 -2 -2 -2 -2 -1 -1 -1 -1 -1 -1 -1 -1 -1
5 7 9 10 11 10 6 6 5 6 7 4 4 9 8 4 1 1 1 1 0 0 0 0 0 0 -0 -0 -1 -2 -2 -2 -1 -2 -2 -2 -2 -2 -2 -1 -2 -1 -1 -1 -1 -1 -1 -1 -2
3 9 11 10 10 9 6 7 5 4 6 5 4 5 4 2 2 3 2 2 2 1 0 0 0 0 0 -0 -1 -1 -2 -2 -1 -1 -2 -1 1 0 -0 -1 -1 -1 -1 -1 -1 -1 -1 -2 -2
6 10 9 6 6 7 6 6 6 7 7 7 6 4 3 2 3 3 3 3 3 2 1 0 0 0 -0 -0 -0 0 -0 0 -0 -0 -0 -0 0 1 -0 -1 -1 -1 -1 -1 -2 -2 -2 -1 -0
6 9 6 6 5 5 6 6 5 7 8 7 7 5 4 3 3 4 3 3 3 2 1 1 0 0 0 -0 -0 -0 -0 0 0 -0 -0 -0 -0 -0 0 -0 0 0 -1 -0 -1 -1 -0 -0 -0
7 5 5 6 5 5 6 5 6 6 6 4 4 4 4 4 4 3 3 3 2 2 1 1 1 0 0 -0 -0 -0 0 -0 1 0 -0 0 0 0 0 0 1 1 0 0 -0 -0 -0 -0 -0
6 6 5 5 5 5 5 6 6 7 5 4 4 4 4 4 4 3 2 2 2 2 1 1 0 0 0 0 -1 -0 -0 0 1 0 0 -0 0 1 0 0 -0 0 0 0 0 0 0 0 0
5 5 5 5 5 5 7 6 6 6 4 4 4 4 4 4 3 3 3 3 2 2 1 1 1 0 0 0 0 0 1 -0 -0 0 0 1 0 0 -0 0 0 -0 -0 -0 -0 0 -0 0 0
5 6 6 6 6 7 6 8 8 5 4 5 5 4 4 3 3 3 2 2 2 2 1 1 1 0 0 1 0 -0 -0 -0 0 0 -0 -0 -0 -0 -0 -0 0 0 -0 -0 -0 -0 -0 0 0
7 7 10 7 6 6 7 11 7 5 5 6 5 4 4 4 3 3 2 2 2 2 2 1 0 0 1 0 0 0 0 0 0 0 -0 0 -0 -0 0 0 0 -0 -0 -0 0 0 1 1 1
8 11 9 8 6 6 7 10 7 5 5 6 5 5 5 4 3 3 2 2 2 2 2 2 1 1 1 0 0 0 0 1 0 0 1 1 1 1 0 -0 -0 -0 -0 0 0 0 1 1 2
11 10 9 9 8 7 9 9 7 6 6 6 6 5 5 5 4 3 2 2 3 3 1 2 1 1 1 0 0 0 0 0 0 0 0 0 1 1 1 0 0 0 0 0 0 1 0 1 1
8 9 9 8 7 8 9 9 8 6 6 6 6 6 5 5 3 3 2 2 2 2 2 1 2 1 1 1 2 2 2 1 1 1 0 0 -0 0 0 1 0 0 1 1 0 1 1 1 1
8 9 9 7 7 8 9 9 7 7 6 6 6 6 5 4 4 3 3 2 2 2 2 2 2 1 1 1 1 1 1 1 1 0 -0 -0 0 0 0 1 1 1 1 1 1 1 2 2 1
9 11 9 9 7 7 8 11 9 7 6 5 5 5 4 5 5 4 3 3 2 2 2 2 2 1 1 1 1 1 1 1 1 1 1 0 -0 -0 0 0 0 1 1 1 1 1 2 3 2
11 7 7 7 10 12 9 15 12 9 8 7 6 5 5 5 4 4 4 3 3 2 2 1 1 1 1 1 1 2 2 3 2 1 1 0 0 0 0 0 0 0 1 1 1 0 1 2 3
8 6 7 8 10 12 10 14 14 10 10 8 6 6 6 5 5 5 4 3 3 2 2 1 1 1 1 1 1 2 2 2 1 2 1 1 0 0 -0 1 1 1 0 1 1 1 1 1 2
6 8 8 10 11 14 12 13 14 12 10 8 7 6 6 5 5 4 3 3 2 2 2 2 2 2 1 1 1 2 2 2 2 2 2 2 1 1 0 -0 0 1 1 1 1 0 1 1 1
8 11 14 15 15 15 11 13 13 10 8 7 7 7 6 5 5 5 4 3 3 2 2 2 2 2 2 2 2 2 2 2 2 2 2 2 2 1 1 0 1 0 1 0 0 1 1 1 1
9 11 14 17 17 14 12 15 12 8 7 8 7 6 6 7 5 5 4 4 3 3 2 2 2 2 2 2 2 1 1 2 2 2 2 2 2 1 1 1 0 0 0 0 0 1 1 1 1
10 12 10 12 12 14 14 12 10 8 8 7 7 7 6 6 6 4 4 3 3 3 3 2 2 2 2 2 2 2 1 2 2 1 1 1 1 1 1 1 1 1 1 1 1 1 1 1 1
9 8 12 12 16 19 16 15 15 11 10 8 8 8 6 5 5 4 4 3 3 2 2 2 2 2 2 2 2 2 1 1 1 1 1 1 1 1 1 1 1 1 1 1 1 1 1 1 1
10 11 11 12 13 16 19 17 10 10 9 8 8 7 7 6 5 5 4 3 3 2 2 2 2 3 2 2 2 2 1 2 2 1 1 1 1 1 1 1 1 1 1 1 1 2 1 2 1
8 9 11 13 14 13 15 17 9 8 8 8 7 6 6 5 5 4 4 3 3 4 3 3 3 3 3 3 3 2 2 2 3 2 2 1 1 0 1 1 1 1 1 1 1 2 1 2 2